TimeEDT,TemperatureF,Dew PointF,Humidity,Sea Level PressureIn,VisibilityMPH,Wind Direction,Wind SpeedMPH,Gust SpeedMPH,PrecipitationIn,Events,Conditions,WindDirDegrees,DateUTC
12:55 AM,46.4,42.8,87,30.12,10.0,Calm,Calm,-,N/A,,Unknown,0,2013-06-22 04:55:00
1:15 AM,46.4,42.8,87,30.11,10.0,Calm,Calm,-,N/A,,Clear,0,2013-06-22 05:15:00
1:35 AM,46.4,42.8,87,30.12,10.0,Calm,Calm,-,N/A,,Clear,0,2013-06-22 05:35:00
1:55 AM,44.6,42.8,93,30.12,10.0,Calm,Calm,-,N/A,,Clear,0,2013-06-22 05:55:00
2:15 AM,44.6,41.0,87,30.11,10.0,Calm,Calm,-,N/A,,Clear,0,2013-06-22 06:15:00
2:35 AM,44.6,39.2,81,30.11,10.0,Calm,Calm,-,N/A,,Clear,0,2013-06-22 06:35:00
2:55 AM,42.8,39.2,87,30.12,9.0,Calm,Calm,-,N/A,,Clear,0,2013-06-22 06:55:00
3:15 AM,42.8,39.2,87,30.12,1.5,South,3.5,-,N/A,,Clear,190,2013-06-22 07:15:00
3:35 AM,42.8,39.2,87,30.12,8.0,SSW,3.5,-,N/A,,Clear,210,2013-06-22 07:35:00
3:55 AM,42.8,39.2,87,30.12,10.0,Calm,Calm,-,N/A,,Clear,0,2013-06-22 07:55:00
4:15 AM,42.8,39.2,87,30.12,10.0,Calm,Calm,-,N/A,,Clear,0,2013-06-22 08:15:00
4:35 AM,42.8,39.2,87,30.11,10.0,Calm,Calm,-,N/A,,Clear,0,2013-06-22 08:35:00
4:55 AM,42.8,39.2,87,30.11,9.0,Calm,Calm,-,N/A,,Clear,0,2013-06-22 08:55:00
5:15 AM,42.8,39.2,87,30.11,10.0,Calm,Calm,-,N/A,,Clear,0,2013-06-22 09:15:00
5:35 AM,42.8,39.2,87,30.12,10.0,Calm,Calm,-,N/A,,Clear,0,2013-06-22 09:35:00
5:55 AM,44.6,41.0,87,30.12,10.0,Calm,Calm,-,N/A,,Clear,0,2013-06-22 09:55:00
6:15 AM,46.4,42.8,87,30.12,10.0,Calm,Calm,-,N/A,,Clear,0,2013-06-22 10:15:00
6:35 AM,48.2,44.6,87,30.11,10.0,Calm,Calm,-,N/A,,Clear,0,2013-06-22 10:35:00
6:55 AM,50.0,42.8,76,30.11,10.0,Calm,Calm,-,N/A,,Clear,0,2013-06-22 10:55:00
7:35 AM,53.6,44.6,72,30.10,10.0,Calm,Calm,-,N/A,,Clear,0,2013-06-22 11:35:00
7:55 AM,55.4,44.6,67,30.10,10.0,Calm,Calm,-,N/A,,Clear,0,2013-06-22 11:55:00
8:15 AM,57.2,46.4,67,30.10,10.0,Calm,Calm,-,N/A,,Clear,0,2013-06-22 12:15:00
8:35 AM,57.2,46.4,67,30.10,10.0,Calm,Calm,-,N/A,,Clear,0,2013-06-22 12:35:00
8:55 AM,57.2,46.4,67,30.09,10.0,Calm,Calm,-,N/A,,Partly Cloudy,0,2013-06-22 12:55:00
9:15 AM,60.8,50.0,68,30.09,10.0,Calm,Calm,-,N/A,,Clear,0,2013-06-22 13:15:00
9:35 AM,60.8,51.8,72,30.08,10.0,Calm,Calm,-,N/A,,Clear,0,2013-06-22 13:35:00
9:55 AM,62.6,51.8,68,30.08,10.0,Calm,Calm,-,N/A,,Clear,0,2013-06-22 13:55:00
10:15 AM,64.4,50.0,59,30.08,10.0,Calm,Calm,-,N/A,,Clear,0,2013-06-22 14:15:00
10:35 AM,66.2,51.8,60,30.08,10.0,Calm,Calm,-,N/A,,Partly Cloudy,0,2013-06-22 14:35:00
10:55 AM,66.2,51.8,60,30.09,10.0,Calm,Calm,-,N/A,,Clear,0,2013-06-22 14:55:00
11:15 AM,68.0,51.8,56,30.09,10.0,West,4.6,-,N/A,,Clear,260,2013-06-22 15:15:00
11:35 AM,69.8,51.8,53,30.09,10.0,WSW,8.1,-,N/A,,Mostly Cloudy,250,2013-06-22 15:35:00